Volver al catálogo

KUIPER-00275

ActivoComunicacionesLEO
NORAD 67793·PAYLOAD·🇺🇸 United States

Lanzado Feb 12, 2026 desde Guiana Space Centre

Loading…

Próximos Pases (próximas 24 horas)

TLE

ActualizadoSource: CelesTrak SupGP

Época: Sep 15, 2026, 00:51 UTC

1 67793C 26030AF  26258.03586806  .00003614  00000+0  47322-3 0  2584
2 67793  51.8991  65.8368 0000834 119.4538 229.9652 14.79919789    19

Sigue KUIPER-00275 en tiempo real con AllMySat

Download on the App Store